Penticton, British Columbia

7:17 AM PDT on August 16, 2017 (GMT -0700)
Penticton

Weather History for CYYF - August, 2014

Change the Weather History Date:

Friday, August 29, 2014

  Actual Average Record
Temperature  
Mean Temperature 62 °F -  
Max Temperature 72 °F 71 °F 89 °F (1996)
Min Temperature 52 °F 46 °F 46 °F (2007)
Degree Days  
Heating Degree Days 3    
Growing Degree Days 12 (Base 50)    
Moisture  
Dew Point 50 °F    
Average Humidity 58    
Maximum Humidity 77    
Minimum Humidity 38    
Precipitation  
Precipitation 0.00 in 0.03 in - ()
Sea Level Pressure  
Sea Level Pressure 29.87 in    
Wind  
Wind Speed 5 mph ()    
Max Wind Speed 16 mph    
Max Gust Speed -    
Visibility 15.0 miles    
Events Rain    
Averages and records for this station are not official NWS values.
T = Trace of Precipitation, MM = Missing Value Source: Averaged Metar Reports

Daily Weather History Graph

Daily Weather History Graph

Search for Another Location

Airport or City:

Trip Planner

Search our weather history database for the weather conditions in past years. The results will help you decide how hot, cold, wet, or windy it might be!

Date:

Astronomy

Aug. 29, 2014 Rise Set
Actual Time 6:10 AM PDT 7:47 PM PDT
Civil Twilight 5:36 AM PDT 8:20 PM PDT
Nautical Twilight 4:55 AM PDT 9:01 PM PDT
Astronomical Twilight 4:10 AM PDT 9:46 PM PDT
Moon 10:29 AM PDT (8/29) 9:21 PM PDT (8/29)
Length of Visible Light 14h 44m
Length of Day
13h 37m
Waxing Crescent, 16% of the Moon is Illuminated
Aug 29
Waxing Crescent
Sep 2
First Quarter
Sep 8
Full
Sep 15
Last Quarter
Sep 23
New

Hourly Weather History & Observations

Time (PDT) Temp. Dew Point Humidity Pressure Visibility Wind Dir Wind Speed Gust Speed Precip Events Conditions
12:00 AM 59.0 °F 50.0 °F 72% 29.94 in 15.0 mi NNW 6.9 mph - N/A   Scattered Clouds
1:00 AM 60.8 °F 50.0 °F 68% 29.93 in 15.0 mi NNW 6.9 mph - N/A   Scattered Clouds
2:00 AM 55.4 °F 48.2 °F 77% 29.94 in 15.0 mi NNW 3.5 mph - N/A   Mostly Cloudy
3:00 AM 55.4 °F 48.2 °F 77% 29.93 in 15.0 mi NE 4.6 mph - N/A   Mostly Cloudy
4:00 AM 57.2 °F 48.2 °F 72% 29.92 in 15.0 mi North 3.5 mph - N/A   Scattered Clouds
5:00 AM 54 °F 47 °F 70% 29.92 in 15 mi North 4.6 mph - -   Clear
5:00 AM 53.6 °F 46.4 °F 77% 29.92 in 15.0 mi NNE 2.3 mph - N/A   Scattered Clouds
6:00 AM 53.6 °F 46.4 °F 77% 29.91 in 15.0 mi North 8.1 mph - N/A   Scattered Clouds
7:00 AM 55.4 °F 48.2 °F 77% 29.91 in 15.0 mi North 3.5 mph - N/A   Mostly Cloudy
8:00 AM 64.4 °F 51.8 °F 64% 29.91 in 15.0 mi North 5.8 mph - N/A   Mostly Cloudy
9:00 AM 66.2 °F 51.8 °F 60% 29.88 in 15.0 mi North 4.6 mph - N/A   Mostly Cloudy
10:00 AM 68.0 °F 51.8 °F 56% 29.87 in 15.0 mi NNE 4.6 mph - N/A   Mostly Cloudy
11:00 AM 71 °F 51 °F 38% 29.85 in 15 mi North 4.6 mph - -   Scattered Clouds
11:00 AM 69.8 °F 50.0 °F 49% 29.85 in 15.0 mi ENE 3.5 mph - N/A   Mostly Cloudy
12:00 PM 69.8 °F 51.8 °F 53% 29.83 in 15.0 mi North 8.1 mph - N/A   Overcast
1:00 PM 69.8 °F 51.8 °F 53% 29.82 in 15.0 mi North 3.5 mph - N/A   Overcast
1:18 PM 69.8 °F 53.6 °F 56% 29.81 in 15.0 mi NW 8.1 mph - N/A   Overcast
1:32 PM 69.8 °F 53.6 °F 56% 29.82 in 15.0 mi North 4.6 mph - N/A Rain Light Rain Showers
2:00 PM 68.0 °F 57.2 °F 68% 29.82 in 15.0 mi NNE 6.9 mph - N/A Rain Light Rain Showers
2:44 PM 69.8 °F 55.4 °F 60% 29.84 in 15.0 mi NW 9.2 mph - N/A   Overcast
3:00 PM 69.8 °F 55.4 °F 60% 29.84 in 15.0 mi NNW 6.9 mph - N/A   Overcast
4:00 PM 69.8 °F 51.8 °F 53% 29.85 in 15.0 mi North 10.4 mph - N/A   Overcast
5:00 PM 70 °F 50 °F 39% 29.84 in 15 mi North 13.8 mph - -   Partly Cloudy
5:00 PM 69.8 °F 50.0 °F 49% 29.84 in 15.0 mi NNE 16.1 mph - N/A   Overcast
6:00 PM 71.6 °F 50.0 °F 46% 29.83 in 15.0 mi NNW 8.1 mph - N/A   Mostly Cloudy
7:00 PM 71.6 °F 48.2 °F 43% 29.83 in 15.0 mi WNW 3.5 mph - N/A   Mostly Cloudy
8:00 PM 68.0 °F 46.4 °F 46% 29.83 in 15.0 mi Variable 4.6 mph - N/A   Mostly Cloudy
9:00 PM 66.2 °F 44.6 °F 46% 29.85 in 15.0 mi NE 4.6 mph - N/A   Scattered Clouds
10:00 PM 62.6 °F 44.6 °F 52% 29.85 in 15.0 mi Variable 2.3 mph - N/A   Partly Cloudy
11:00 PM 61 °F 44 °F 43% 29.86 in 15 mi North 1.2 mph - -   Scattered Clouds
11:00 PM 60.8 °F 44.6 °F 55% 29.86 in 15.0 mi Variable 2.3 mph - N/A   Partly Cloudy